Voltar ao catálogo

STARLINK-31210

AtivoComunicaçõesVLEO
NORAD 59033·PAYLOAD·🇺🇸 United States

Lançado Feb 25, 2024 de Cape Canaveral Space Force Station

Loading…

Próximas Passagens (próximas 24 horas)

TLE

AtualizadoSource: CelesTrak SupGP

Época: Sep 14, 2026, 20:49 UTC

1 59033C 24038L   26257.86784722  .00062857  00000+0  22767-2 0  2573
2 59033  43.0041  35.2711 0001483 276.3050 299.5533 15.27547035    18

Acompanhe STARLINK-31210 em tempo real com AllMySat

Download on the App Store